Temp
13 13 13 13 13 13 13 13 13 13 13 14 14 14 14 14 14 15 15 15 15 15 15 15 15 14 13 12 10 11 12 12 12 12 12 11 12 12 11 12 12 11 12 14 14 14 14
12 12 12 13 13 13 13 13 13 13 13 13 14 14 14 14 14 14 14 14 14 15 14 14 14 13 12 11 10 11 11 11 10 10 11 11 12 12 12 11 11 12 12 12 13 13 12
12 12 12 12 12 12 12 13 13 13 13 13 14 14 14 14 14 14 14 14 14 14 13 13 12 12 11 10 10 10 10 10 10 11 11 11 11 11 11 9 12 12 10 10 11 12 11
12 12 12 12 12 12 12 13 13 13 13 13 14 14 14 14 14 14 14 14 14 13 13 12 11 11 10 10 10 10 10 10 10 10 10 10 10 10 10 10 11 9 9 8 11 12 12
12 12 12 12 12 12 12 12 13 13 13 13 13 14 14 14 14 14 14 14 13 12 12 11 11 10 10 10 10 10 9 9 10 10 10 9 9 9 10 8 6 8 7 8 10 12 12
12 12 12 12 12 12 12 12 12 13 13 13 13 13 13 13 13 13 13 14 12 12 12 11 11 10 10 9 9 9 9 9 9 9 10 9 9 8 7 6 7 6 8 9 9 10 11
11 11 11 11 12 12 12 12 12 12 13 13 13 13 13 13 13 12 13 14 13 11 10 9 9 10 9 10 9 9 9 10 10 10 8 9 7 6 7 8 8 9 9 8 9 9 7
11 11 11 11 11 11 12 12 12 12 13 13 13 13 13 13 13 12 12 10 8 8 7 9 9 9 9 9 9 8 9 9 8 7 8 6 6 8 8 8 5 5 6 5 5 6 7
11 11 11 11 11 11 12 12 12 12 12 12 12 13 12 12 12 12 10 8 7 7 7 9 9 9 9 9 7 7 7 7 7 7 6 6 6 6 6 3 3 3 1 2 3 3 5
10 10 11 11 11 11 11 11 12 12 12 12 12 12 12 12 11 10 9 8 7 6 6 8 9 8 9 9 7 7 7 7 6 5 5 5 5 5 2 1 2 2 2 2 2 1 0
10 10 10 10 11 11 11 11 11 12 12 12 12 11 11 12 11 10 9 8 7 6 8 9 8 8 8 7 7 6 4 5 2 3 3 2 2 1 0 0 2 1 2 1 1 1 0
9 10 10 10 10 11 11 11 11 12 11 11 11 11 11 11 11 10 10 7 7 7 6 5 8 7 5 6 6 5 1 3 2 2 1 1 3 1 0 0 1 2 1 0 1 1 0
9 9 10 10 10 10 11 11 11 11 11 11 11 10 11 11 10 10 9 7 6 6 7 5 4 4 4 3 4 3 1 -1 -2 -2 -3 -1 1 0 0 -1 0 0 -1 -3 -4 -6 -1
9 9 9 10 10 10 10 11 11 11 11 11 11 10 11 10 10 10 9 6 6 5 2 4 4 4 2 2 2 2 0 -2 -1 -2 -3 -3 -3 -1 -0 -1 -1 -1 -1 -3 -4 -4 -3
8 8 9 9 9 10 10 10 10 10 10 11 11 10 10 10 10 10 9 1 1 2 2 2 2 3 2 1 1 -0 -2 -2 -2 -2 -3 -4 -3 -1 -0 -0 -0 -1 -2 -1 -4 -3 -4
8 8 8 8 9 9 10 10 10 10 10 11 10 10 9 9 10 9 3 2 1 2 2 2 0 1 -0 -1 -2 -2 -2 -1 -1 -2 -2 -3 -5 -1 -1 -0 -1 -2 -1 -3 -2 -4 -2
8 8 8 8 8 9 9 9 9 10 10 10 10 9 9 9 9 8 0 1 2 2 2 1 0 -0 -2 -2 -2 -3 -2 -1 -2 -2 -2 -3 -4 -3 -2 -3 -4 -3 -4 -4 -3 -3 -3
7 7 7 8 8 8 8 9 9 9 10 10 9 6 8 9 5 2 -1 1 2 1 1 1 0 -1 -1 -2 -2 -2 -2 -2 -1 -2 -4 -3 -4 -6 -4 -2 -3 -4 -4 -4 -4 -5 -4
7 7 7 7 7 7 8 8 8 9 10 10 8 7 7 9 1 -1 1 1 0 -0 -1 -1 -1 -0 -1 -2 -2 -2 -3 -1 -1 -2 -3 -3 -6 -7 -4 -3 -6 -6 -4 -4 -2 -3 -6
7 6 7 6 6 7 7 8 8 8 9 9 8 3 5 4 3 -0 0 0 -1 -0 -1 -1 -1 -1 -3 -3 -1 -3 -4 -2 -1 -1 -1 -2 -4 -5 -5 -5 -4 -5 -5 -5 -6 -7 -6
6 6 6 6 6 6 7 7 8 8 8 8 6 2 2 -1 -0 -0 -0 -1 -2 -2 -1 -1 -2 -3 -3 -3 -3 -4 -4 -4 -2 -2 -2 -4 -5 -5 -4 -5 -5 -6 -6 -6 -6 -8 -8
6 5 5 5 5 6 6 7 7 7 8 8 6 4 2 1 2 -1 -2 -2 -2 -2 -2 -3 -3 -3 -3 -4 -4 -5 -5 -4 -4 -3 -4 -5 -5 -4 -5 -5 -5 -7 -6 -7 -7 -6 -6
5 4 4 4 5 5 6 6 6 7 7 6 4 3 3 0 -1 -3 -3 -2 -3 -2 -2 -2 -3 -4 -4 -4 -4 -3 -3 -3 -3 -5 -5 -5 -6 -6 -6 -4 -5 -6 -8 -7 -8 -9 -8
4 3 4 4 4 5 5 5 5 6 6 6 4 3 2 -2 -3 -3 -2 -2 -3 -3 -3 -3 -3 -4 -3 -3 -3 -2 -3 -3 -3 -3 -3 -5 -7 -6 -7 -5 -9 -8 -6 -6 -7 -9 -9
4 3 2 3 4 4 4 4 4 4 5 4 4 3 2 -4 -2 -2 -2 -3 -2 -2 -3 -3 -3 -3 -3 -3 -4 -4 -5 -3 -3 -4 -5 -5 -10 -7 -7 -8 -6 -8 -8 -8 -9 -9 -10
3 3 2 2 3 3 3 3 3 3 3 3 3 2 1 -2 -5 -3 -3 -3 -6 -6 -5 -4 -3 -3 -3 -4 -3 -5 -6 -4 -5 -5 -5 -4 -7 -9 -8 -8 -7 -10 -8 -9 -8 -10 -11
3 3 2 2 2 3 2 3 3 2 3 3 2 1 0 -4 -4 -3 -4 -5 -3 -4 -9 -4 -4 -4 -4 -6 -4 -6 -5 -4 -7 -7 -7 -7 -8 -9 -10 -11 -10 -9 -9 -7 -10 -11 -12
3 2 2 2 2 2 2 2 2 2 2 2 1 0 -0 -5 -5 -4 -4 -4 -4 -4 -9 -4 -6 -5 -7 -8 -9 -9 -9 -9 -10 -8 -9 -12 -12 -10 -9 -9 -11 -10 -9 -11 -12 -12 -12
3 2 2 2 1 1 1 1 1 1 1 1 0 -1 -1 -3 -6 -5 -5 -5 -4 -5 -5 -5 -5 -5 -5 -10 -12 -12 -9 -11 -10 -7 -8 -11 -12 -14 -12 -9 -10 -10 -11 -12 -12 -13 -12
Height
1564 1563 1562 1561 1559 1557 1554 1552 1549 1546 1543 1539 1535 1532 1528 1524 1521 1517 1514 1510 1507 1503 1500 1498 1496 1495 1496 1497 1500 1499 1499 1498 1498 1498 1499 1499 1499 1498 1497 1491 1489 1487 1483 1481 1481 1478 1474
1565 1564 1563 1561 1560 1557 1555 1552 1549 1545 1542 1538 1534 1530 1527 1523 1519 1515 1511 1508 1505 1501 1498 1496 1495 1495 1496 1499 1501 1500 1499 1499 1499 1498 1498 1499 1498 1497 1495 1492 1491 1484 1481 1479 1477 1473 1472
1567 1565 1563 1561 1560 1558 1555 1552 1548 1545 1541 1537 1532 1529 1525 1521 1517 1513 1510 1506 1503 1500 1497 1496 1495 1496 1498 1502 1501 1500 1499 1499 1499 1498 1498 1499 1498 1498 1495 1491 1487 1484 1481 1478 1476 1469 1470
1568 1566 1564 1562 1560 1557 1555 1551 1548 1544 1540 1536 1531 1527 1524 1520 1516 1512 1508 1504 1501 1499 1497 1496 1495 1496 1501 1502 1502 1501 1500 1500 1500 1499 1499 1498 1497 1496 1495 1493 1488 1486 1482 1481 1467 1465 1463
1568 1566 1565 1563 1560 1557 1554 1551 1547 1543 1539 1535 1531 1526 1522 1518 1514 1510 1507 1503 1501 1500 1498 1498 1498 1498 1504 1505 1503 1503 1502 1500 1499 1499 1497 1497 1497 1496 1494 1494 1497 1489 1487 1478 1471 1464 1463
1569 1567 1565 1563 1560 1557 1554 1550 1546 1542 1538 1534 1529 1525 1520 1516 1512 1509 1505 1501 1500 1500 1499 1499 1501 1504 1508 1509 1506 1505 1503 1501 1501 1500 1499 1498 1497 1496 1497 1500 1499 1494 1485 1475 1475 1470 1465
1569 1567 1565 1563 1560 1557 1553 1550 1546 1542 1537 1533 1528 1524 1519 1515 1511 1508 1505 1501 1503 1502 1502 1506 1509 1508 1511 1509 1507 1505 1503 1499 1499 1500 1500 1498 1501 1503 1497 1494 1489 1484 1479 1475 1471 1472 1469
1569 1567 1565 1563 1560 1557 1553 1550 1546 1541 1537 1532 1528 1523 1519 1514 1510 1508 1505 1504 1508 1510 1509 1509 1510 1511 1512 1509 1507 1506 1504 1502 1502 1503 1500 1502 1504 1502 1498 1496 1499 1495 1488 1487 1474 1476 1475
1569 1568 1565 1563 1559 1556 1552 1549 1545 1541 1536 1532 1527 1522 1518 1514 1510 1507 1505 1506 1507 1508 1510 1514 1513 1512 1511 1511 1512 1511 1508 1505 1504 1503 1504 1505 1502 1500 1497 1505 1504 1501 1508 1499 1495 1478 1471
1568 1566 1565 1562 1559 1556 1552 1548 1544 1540 1535 1531 1526 1522 1518 1515 1513 1508 1506 1506 1506 1507 1514 1517 1512 1514 1513 1509 1515 1515 1511 1512 1509 1509 1506 1504 1503 1501 1505 1511 1512 1505 1508 1502 1494 1493 1493
1568 1566 1564 1561 1559 1555 1551 1548 1544 1540 1535 1530 1526 1522 1518 1513 1513 1509 1508 1504 1502 1503 1520 1516 1516 1517 1516 1514 1519 1518 1515 1512 1519 1516 1515 1521 1514 1514 1516 1523 1515 1512 1506 1500 1493 1490 1489
1567 1566 1564 1561 1558 1555 1551 1547 1543 1539 1535 1530 1525 1521 1518 1515 1512 1509 1505 1502 1503 1507 1526 1522 1518 1518 1518 1517 1519 1520 1520 1517 1521 1518 1520 1521 1517 1519 1522 1520 1517 1510 1501 1489 1484 1483 1485
1567 1565 1563 1560 1557 1554 1551 1547 1543 1538 1533 1529 1525 1522 1518 1516 1513 1508 1505 1504 1511 1523 1522 1529 1527 1523 1524 1525 1524 1524 1528 1529 1534 1533 1537 1529 1522 1524 1519 1516 1511 1504 1499 1511 1516 1519 1492
1565 1564 1562 1559 1557 1554 1551 1546 1542 1537 1532 1528 1524 1521 1519 1516 1513 1509 1506 1506 1523 1534 1537 1533 1528 1524 1531 1531 1533 1530 1532 1540 1540 1541 1540 1540 1537 1532 1526 1522 1515 1510 1512 1517 1517 1509 1503
1565 1563 1561 1559 1556 1553 1550 1545 1541 1536 1531 1526 1523 1522 1519 1516 1513 1510 1508 1535 1547 1545 1545 1541 1532 1530 1534 1537 1536 1537 1544 1545 1545 1543 1549 1545 1542 1531 1526 1519 1518 1518 1515 1508 1511 1498 1506
1564 1562 1561 1558 1556 1553 1549 1544 1539 1535 1530 1526 1523 1521 1520 1516 1513 1511 1515 1541 1548 1547 1545 1543 1543 1540 1543 1546 1546 1546 1545 1549 1546 1546 1544 1544 1547 1531 1527 1520 1520 1518 1517 1515 1506 1513 1490
1563 1562 1560 1558 1555 1552 1548 1543 1538 1534 1530 1525 1522 1520 1521 1517 1515 1513 1539 1547 1548 1549 1547 1546 1545 1545 1550 1552 1550 1550 1551 1549 1546 1547 1545 1545 1547 1539 1531 1530 1530 1524 1525 1518 1513 1507 1503
1562 1560 1558 1556 1555 1551 1547 1543 1538 1534 1529 1525 1523 1524 1522 1519 1520 1531 1545 1546 1550 1550 1549 1549 1550 1551 1553 1552 1551 1550 1550 1549 1549 1548 1549 1546 1545 1551 1538 1534 1531 1531 1529 1520 1513 1523 1512
1561 1560 1559 1556 1554 1550 1547 1542 1538 1535 1530 1526 1525 1526 1525 1520 1534 1541 1545 1548 1552 1554 1554 1552 1552 1550 1550 1553 1553 1550 1552 1549 1547 1548 1547 1544 1550 1555 1539 1532 1533 1536 1530 1525 1515 1515 1528
1559 1559 1557 1555 1553 1549 1546 1542 1539 1536 1532 1529 1528 1531 1530 1530 1536 1540 1545 1549 1553 1553 1555 1554 1555 1554 1555 1554 1551 1552 1554 1549 1548 1547 1545 1543 1545 1548 1550 1541 1538 1540 1536 1531 1530 1535 1532
1557 1557 1556 1554 1552 1548 1545 1543 1539 1536 1534 1533 1532 1538 1540 1544 1543 1542 1545 1550 1555 1557 1556 1557 1555 1557 1558 1555 1554 1555 1553 1551 1549 1547 1545 1545 1547 1544 1537 1541 1541 1542 1542 1539 1536 1540 1542
1556 1556 1555 1552 1551 1549 1544 1542 1540 1537 1533 1532 1535 1537 1541 1544 1543 1544 1547 1553 1555 1557 1559 1561 1561 1559 1557 1558 1558 1559 1556 1553 1552 1548 1546 1543 1546 1539 1537 1538 1539 1544 1543 1543 1542 1535 1534
1554 1554 1553 1552 1551 1549 1544 1542 1541 1537 1535 1533 1535 1539 1539 1544 1544 1547 1553 1554 1556 1555 1559 1561 1560 1559 1557 1557 1555 1553 1553 1552 1550 1550 1549 1546 1548 1546 1543 1532 1533 1538 1550 1546 1546 1547 1543
1551 1552 1551 1551 1550 1548 1544 1542 1540 1538 1537 1536 1536 1538 1540 1550 1549 1552 1553 1554 1555 1556 1558 1560 1560 1558 1555 1552 1549 1546 1546 1548 1547 1548 1546 1546 1548 1544 1546 1538 1556 1552 1549 1546 1546 1547 1547
1549 1549 1549 1549 1547 1547 1544 1542 1542 1538 1539 1537 1537 1538 1541 1550 1552 1556 1556 1555 1555 1556 1556 1558 1559 1558 1554 1550 1548 1545 1549 1550 1547 1548 1546 1545 1553 1551 1549 1552 1542 1547 1548 1550 1547 1546 1548
1547 1547 1547 1549 1548 1546 1544 1543 1543 1541 1539 1538 1537 1537 1539 1545 1557 1556 1556 1557 1557 1558 1558 1559 1557 1556 1554 1550 1548 1551 1559 1549 1551 1549 1545 1545 1547 1557 1551 1554 1544 1559 1553 1547 1538 1543 1544
1544 1545 1546 1548 1548 1547 1545 1542 1542 1541 1540 1539 1538 1538 1538 1544 1553 1555 1557 1560 1559 1558 1560 1559 1557 1556 1555 1553 1551 1557 1555 1552 1559 1558 1557 1555 1556 1558 1559 1566 1556 1558 1550 1540 1547 1552 1544
1540 1543 1545 1547 1547 1546 1546 1543 1542 1541 1540 1541 1539 1539 1542 1544 1551 1553 1556 1558 1560 1560 1564 1561 1560 1560 1558 1562 1564 1565 1565 1562 1565 1562 1564 1572 1575 1566 1560 1557 1567 1555 1549 1555 1559 1550 1545
1539 1541 1543 1544 1545 1546 1546 1545 1542 1542 1542 1543 1540 1540 1543 1545 1553 1555 1557 1559 1561 1561 1562 1561 1562 1561 1561 1565 1567 1567 1564 1564 1565 1561 1561 1572 1571 1577 1572 1559 1557 1557 1557 1557 1554 1548 1542
Wind_Speed
12 13 15 16 16 18 19 20 21 23 24 25 25 25 25 25 23 22 21 19 20 20 17 15 10 5 1 5 4 7 7 5 3 3 3 2 7 8 4 5 9 9 8 18 20 19 19
12 14 15 16 17 18 20 22 23 24 25 26 26 26 25 24 24 23 21 20 21 16 13 10 8 5 5 4 3 9 6 4 3 3 2 4 6 11 11 6 5 9 18 17 19 25 19
11 13 14 16 17 19 21 22 24 25 26 27 27 27 27 25 24 23 21 21 20 12 10 8 6 6 10 5 8 11 10 8 7 4 5 3 6 9 7 7 15 14 13 12 14 20 11
12 13 14 16 17 19 21 22 24 26 27 27 27 27 26 24 24 23 21 21 15 10 9 7 7 7 6 11 10 10 5 5 10 9 6 8 9 12 7 10 8 7 5 4 5 5 10
11 12 14 16 18 20 22 23 25 26 26 26 27 27 26 24 23 19 20 20 10 7 9 6 10 8 4 7 16 13 14 10 8 7 9 8 8 4 6 3 4 4 8 7 7 7 7
11 13 14 16 18 20 22 24 25 26 26 27 27 27 25 24 23 17 19 14 6 8 11 4 10 5 10 14 10 13 12 10 9 10 9 4 3 1 3 3 7 10 12 16 17 6 15
11 12 14 15 18 20 22 24 26 26 27 28 28 27 25 24 21 19 19 7 5 3 20 9 7 7 7 11 6 13 18 15 7 7 3 3 1 4 9 7 12 17 17 18 18 15 21
10 12 14 16 18 21 23 25 26 27 28 29 28 26 23 23 17 18 16 11 8 3 3 9 8 9 7 15 4 24 30 11 8 5 11 6 6 10 12 13 17 16 14 14 14 21 17
10 13 14 16 19 20 22 24 26 27 29 28 27 25 22 21 11 19 18 16 6 2 3 6 9 11 16 12 10 20 26 11 3 5 6 1 3 14 13 19 21 10 20 21 19 26 12
10 11 14 16 18 20 22 24 25 27 27 27 26 23 21 19 7 17 14 15 5 3 4 4 4 7 16 6 7 22 18 13 9 6 7 4 16 16 16 20 16 5 19 19 20 16 7
10 12 13 15 18 20 21 24 26 27 27 26 24 19 20 18 11 15 16 12 2 5 3 3 4 4 10 9 9 20 25 12 8 6 5 8 9 10 14 17 15 12 18 15 16 14 8
10 11 14 16 17 20 22 24 26 27 26 25 22 15 18 17 16 18 17 7 3 4 2 4 3 6 7 12 8 16 19 16 18 5 13 7 9 8 3 19 10 15 17 14 4 7 7
9 11 13 15 17 20 22 25 27 26 24 23 20 12 18 17 19 18 14 2 4 6 6 7 4 7 5 7 8 9 7 22 11 5 8 7 5 14 23 21 20 22 18 7 6 5 3
8 10 12 14 17 20 22 25 26 26 24 22 17 8 17 19 17 17 12 4 7 4 4 4 5 6 6 9 8 9 5 5 11 6 3 6 4 14 17 11 11 8 6 4 5 5 9
8 10 12 14 16 19 22 25 26 24 23 20 14 4 21 18 14 14 4 7 1 3 5 7 10 5 3 6 4 8 6 5 7 9 4 5 6 12 11 16 8 11 10 12 5 9 3
8 10 12 14 16 20 23 25 23 21 21 20 11 3 22 16 12 8 7 5 3 3 6 4 4 6 6 6 6 7 4 4 3 9 6 3 4 8 16 8 7 4 6 5 3 4 6
7 9 11 13 16 20 24 23 22 20 20 18 7 2 17 11 8 14 4 3 4 9 8 4 3 4 5 5 4 5 4 5 6 8 11 3 1 7 8 8 10 6 5 4 4 2 3
6 8 10 13 17 22 22 22 22 20 19 16 4 3 18 8 9 7 3 3 3 6 10 7 5 5 3 4 4 3 5 3 12 9 3 3 3 3 9 4 7 7 7 6 3 5 4
6 7 10 12 18 20 20 20 19 18 19 15 3 4 13 9 4 3 4 4 5 5 6 5 2 3 5 3 2 3 5 4 10 6 4 3 2 4 5 1 5 5 15 13 2 4 10
5 6 8 14 18 18 18 17 15 15 17 11 4 3 10 17 10 6 4 4 3 7 5 5 4 7 6 3 2 3 5 7 9 8 14 10 2 2 6 8 2 4 12 13 6 4 5
6 6 11 14 14 16 17 16 13 12 15 7 7 3 4 3 8 10 5 3 3 3 6 12 3 5 4 2 4 4 5 5 8 13 11 3 2 5 9 6 7 8 9 12 10 0 2
8 8 9 11 13 14 14 13 11 10 9 13 3 2 5 4 2 6 7 3 3 3 4 2 2 6 6 3 1 3 4 2 4 7 4 5 2 6 2 8 4 8 10 9 12 11 2
11 7 8 9 11 13 12 11 10 11 11 7 6 5 2 5 4 4 1 2 4 2 7 7 6 5 3 4 13 16 15 15 14 2 3 4 3 3 4 8 8 1 11 8 9 9 7
11 6 5 6 9 10 10 10 10 11 12 11 8 5 3 2 6 3 5 5 3 3 2 5 7 3 6 18 18 11 13 14 12 6 7 4 4 1 3 6 3 6 11 8 13 6 9
11 10 5 3 6 8 8 9 9 10 11 10 8 4 4 3 10 7 8 3 5 3 3 1 4 9 14 13 3 4 3 1 2 3 7 8 2 2 1 1 1 6 12 9 11 7 11
10 9 5 2 4 5 6 7 8 9 10 9 9 7 8 11 3 2 5 6 2 2 3 5 7 9 14 2 2 1 1 1 3 7 10 7 4 3 3 2 3 5 11 22 20 4 22
9 8 5 3 2 4 5 6 7 8 9 8 8 6 6 10 8 3 5 2 3 4 2 2 8 10 13 3 2 2 1 1 2 4 5 4 3 2 4 3 3 9 16 15 5 6 28
8 7 8 4 0 3 3 5 6 7 7 6 8 5 3 9 10 7 8 5 4 6 2 7 4 7 5 4 3 2 2 2 3 2 0 2 1 2 3 3 4 25 9 4 8 21 22
8 10 10 5 1 2 3 4 6 7 7 6 11 11 13 10 13 11 10 7 6 6 3 4 2 2 4 3 2 1 2 2 2 1 4 2 4 2 4 3 8 15 7 13 20 22 22
Wind_Direction
33 29 26 21 16 15 13 10 7 4 1 359 358 356 354 350 348 347 346 345 341 337 338 340 337 324 88 87 53 333 321 322 311 295 251 226 273 270 259 267 302 263 259 262 271 289 289
27 23 22 18 13 10 9 7 4 2 360 358 357 356 355 352 348 346 347 345 343 343 347 0 17 61 93 92 8 337 344 352 326 301 258 266 262 300 297 274 255 285 305 300 298 287 282
24 20 18 16 11 9 7 4 1 360 359 358 357 356 356 355 350 346 346 346 346 353 1 8 42 83 70 45 41 33 17 7 348 290 283 267 280 269 316 311 289 301 300 295 277 270 268
17 14 13 11 8 7 5 3 360 359 359 357 356 356 356 355 351 348 347 347 352 9 11 40 66 69 74 56 17 351 335 345 327 335 309 278 284 280 264 280 313 298 273 290 240 280 245
12 10 9 9 6 4 2 0 359 359 358 358 356 355 355 355 353 352 348 346 359 36 39 66 57 58 58 10 10 19 10 351 300 317 319 315 286 267 310 305 332 282 271 259 295 262 302
5 7 6 5 3 2 0 358 358 358 357 357 355 353 352 352 352 354 351 348 14 52 36 74 51 73 38 352 27 16 2 346 337 334 323 263 239 312 339 50 283 282 289 291 297 329 309
2 2 2 1 0 1 359 357 357 357 356 355 354 354 351 352 353 355 359 357 14 46 45 59 33 94 24 16 49 15 6 348 335 296 321 255 206 253 257 256 270 290 292 300 316 348 333
354 356 358 359 359 359 358 358 357 357 355 355 354 354 353 352 354 1 5 53 42 10 18 51 56 60 19 11 6 356 359 17 351 321 334 7 293 345 357 9 15 5 340 339 313 340 330
351 352 354 356 358 358 358 358 357 356 354 354 354 353 355 352 356 0 15 29 33 39 99 45 52 40 18 15 43 8 22 359 328 13 6 258 359 7 11 28 6 351 2 341 328 334 300
347 351 353 355 356 354 356 357 356 354 353 353 354 353 357 1 7 1 5 5 14 134 91 339 353 30 357 18 65 26 20 20 18 335 335 312 351 14 46 18 351 308 351 329 330 338 313
342 350 350 353 353 354 355 355 354 353 352 353 355 358 1 9 8 359 347 347 54 137 25 328 38 54 15 65 339 14 23 19 53 316 25 322 8 48 48 3 353 316 319 313 304 297 301
341 345 347 351 352 352 354 355 353 352 352 353 355 6 6 6 5 354 347 346 139 49 279 5 53 11 25 8 75 15 49 42 43 13 15 322 41 34 41 351 350 322 327 304 258 266 253
336 341 345 349 350 353 354 353 351 350 352 352 355 4 6 8 359 351 345 340 36 84 353 341 331 354 56 357 31 26 59 46 45 9 9 325 36 7 358 343 341 345 354 343 350 2 305
329 338 344 347 350 351 353 351 350 350 351 351 354 16 14 7 356 352 345 45 69 43 335 7 322 324 84 19 47 6 42 59 41 48 299 352 352 350 314 318 320 332 14 316 295 289 302
325 335 341 348 350 351 351 349 349 350 350 350 352 24 19 3 355 353 355 51 119 353 326 320 322 32 42 29 9 19 67 40 40 38 33 322 337 308 329 322 12 358 340 295 250 250 256
321 333 341 347 350 350 350 347 349 352 350 349 350 30 16 8 9 10 67 109 95 35 322 341 30 43 11 18 24 14 41 11 37 19 15 300 311 312 326 343 2 315 324 330 358 312 314
318 332 339 345 349 351 347 347 350 355 353 353 356 27 4 358 11 56 81 62 100 50 15 38 28 5 34 9 339 354 356 43 36 9 24 347 1 303 336 16 30 10 9 340 259 283 340
313 325 334 346 349 347 346 351 354 355 359 359 15 41 359 3 49 60 67 80 39 11 20 18 62 52 50 349 345 52 42 76 31 27 351 280 238 296 309 28 84 34 4 358 279 13 326
302 323 337 344 344 345 349 355 357 359 2 4 47 20 9 48 84 77 127 80 66 26 26 15 80 34 26 355 325 359 33 49 42 356 304 349 339 313 320 331 7 36 19 20 354 31 28
293 311 329 341 345 349 351 356 2 3 6 6 15 21 28 53 66 102 108 88 112 54 65 6 54 56 12 332 24 50 11 355 344 350 2 359 247 268 312 304 29 41 22 19 18 44 326
266 303 327 338 344 351 355 358 6 9 10 9 34 66 23 9 32 68 79 70 72 23 359 21 81 41 342 285 343 6 7 338 346 10 344 80 282 330 310 137 88 69 37 20 31 292 122
254 302 318 337 346 350 358 3 6 13 25 49 66 78 83 89 71 82 33 58 96 5 26 50 36 330 347 74 79 288 357 314 260 325 314 338 307 325 348 155 143 76 34 29 16 354 282
243 282 310 336 345 349 2 10 12 22 33 68 86 99 125 21 43 82 45 86 76 51 72 60 20 353 343 322 315 288 275 268 267 237 282 347 348 340 296 320 168 133 18 3 5 38 355
251 260 281 332 342 351 6 18 23 33 42 53 78 103 103 31 73 79 106 107 116 104 101 29 14 11 293 318 308 272 257 254 271 308 32 354 344 350 279 357 348 138 32 0 342 59 20
247 250 244 332 343 355 15 27 32 45 48 46 66 93 96 82 108 83 75 41 187 150 96 34 336 332 323 315 331 315 47 67 314 78 39 59 69 313 342 292 164 23 1 348 323 332 19
248 255 252 341 332 356 25 36 36 44 48 47 67 91 114 125 6 79 93 61 100 27 6 31 23 7 0 285 318 266 112 346 324 338 34 21 40 99 340 340 302 10 322 309 299 229 2
238 259 214 237 318 7 28 46 42 46 50 54 79 95 124 105 52 80 88 112 42 14 142 9 355 353 4 12 360 39 48 59 354 341 343 354 343 30 336 272 135 349 332 335 21 318 335
225 234 205 227 318 33 35 51 49 49 57 57 80 82 145 111 93 104 110 111 101 61 106 336 38 2 12 38 55 292 81 261 67 29 38 129 38 338 340 301 311 2 5 52 325 316 321
229 216 203 205 149 42 44 53 57 56 70 76 95 99 112 97 104 103 105 98 85 70 57 42 121 70 20 64 17 31 341 11 144 93 25 8 157 211 154 267 12 6 66 359 346 329 328